Location: Bednik
(45.3500°N, 16.3833°E)
Time: 16:39:25
(UTC+00:00)

Cosmos 2227 Rocket - Pass Details

Date: 08 August 2020
Orbit: 840 x 843 km, 71.0° (Epoch: 24 September)

Event Time Altitude Azimuth Distance (km) Brightness Sun altitude
Exits shadow 23:22:33 25° 95° (E) 1,625 3.6 -28.7°
Drops below altitude 10° 23:26:41 10° 48° (NE) 2,470 5.2 -28.6°
Sets 23:29:29 0° 36° (NE) 3,409 6.3 -28.5°
